| time (UTC) | temp F | wind direction | speed knots | gust knots | rain 1hr in | rain 24hr in | rain mn in | humidity % | barometer mb |
| 20260904180028 | 94 | 221 | 6.1 | 11.3 | 0.00 | 1.66 | 0.01 | 68 | 1016.2 |
| 20260904175511 | 95 | 173 | 2.6 | 7.8 | 0.00 | 1.66 | 0.01 | 70 | 1016.2 |
| 20260904175015 | 95 | 205 | 2.6 | 8.7 | 0.00 | 1.66 | 0.01 | 70 | 1016.2 |
| 20260904174603 | 95 | 186 | 2.6 | 8.7 | 0.00 | 1.66 | 0.01 | 72 | 1016.3 |
| 20260904174007 | 94 | 178 | 1.7 | 7.8 | 0.00 | 1.66 | 0.01 | 74 | 1016.4 |
| 20260904173509 | 94 | 196 | 1.7 | 7.0 | 0.00 | 1.66 | 0.01 | 71 | 1016.4 |
| 20260904173032 | 94 | 107 | 0.9 | 7.0 | 0.00 | 1.66 | 0.01 | 75 | 1016.4 |
| 20260904172517 | 93 | 150 | 0.9 | 6.1 | 0.00 | 1.66 | 0.01 | 75 | 1016.6 |
| 20260904172010 | 93 | 192 | 0.0 | 7.8 | 0.00 | 1.66 | 0.01 | 73 | 1016.6 |
| 20260904171530 | 93 | 190 | 3.5 | 8.7 | 0.00 | 1.66 | 0.01 | 72 | 1016.5 |
| 20260904171011 | 93 | 162 | 1.7 | 8.7 | 0.00 | 1.66 | 0.01 | 75 | 1016.7 |
| 20260904170508 | 93 | 222 | 4.3 | 11.3 | 0.00 | 1.66 | 0.01 | 75 | 1016.8 |
| 20260904170040 | 93 | 177 | 4.3 | 11.3 | 0.00 | 1.66 | 0.01 | 75 | 1016.7 |
| 20260904165511 | 93 | 165 | 5.2 | 9.6 | 0.00 | 1.66 | 0.01 | 75 | 1016.7 |
| 20260904165013 | 93 | 216 | 1.7 | 7.8 | 0.00 | 1.66 | 0.01 | 76 | 1016.8 |
| 20260904164524 | 93 | 200 | 2.6 | 7.8 | 0.00 | 1.66 | 0.01 | 77 | 1016.9 |
| 20260904164012 | 92 | 193 | 2.6 | 7.0 | 0.00 | 1.66 | 0.01 | 76 | 1017.0 |
| 20260904163516 | 92 | 194 | 2.6 | 6.1 | 0.00 | 1.66 | 0.01 | 78 | 1017.1 |
| 20260904163042 | 91 | 202 | 2.6 | 6.1 | 0.00 | 1.66 | 0.01 | 79 | 1017.2 |
| 20260904162513 | 90 | 143 | 0.0 | 5.2 | 0.00 | 1.66 | 0.01 | 79 | 1017.1 |
| 20260904162016 | 90 | 182 | 0.9 | 7.0 | 0.00 | 1.66 | 0.01 | 80 | 1017.2 |
| 20260904161532 | 90 | 198 | 2.6 | 8.7 | 0.00 | 1.66 | 0.01 | 77 | 1017.3 |
| 20260904161009 | 90 | 229 | 3.5 | 8.7 | 0.00 | 1.66 | 0.01 | 81 | 1017.4 |
| 20260904160513 | 90 | 183 | 2.6 | 7.0 | 0.00 | 1.66 | 0.01 | 78 | 1017.5 |
| 20260904160008 | 90 | 192 | 0.9 | 7.8 | 0.00 | 1.66 | 0.01 | 81 | 1017.4 |
| 20260904155507 | 90 | 213 | 2.6 | 7.8 | 0.00 | 1.66 | 0.01 | 82 | 1017.4 |
| 20260904155009 | 89 | 224 | 3.5 | 7.0 | 0.00 | 1.66 | 0.01 | 83 | 1017.4 |
| 20260904154503 | 89 | 203 | 1.7 | 11.3 | 0.00 | 1.66 | 0.01 | 84 | 1017.5 |
| 20260904154003 | 88 | 199 | 5.2 | 11.3 | 0.00 | 1.66 | 0.01 | 83 | 1017.5 |
| 20260904153504 | 88 | 190 | 0.9 | 6.1 | 0.00 | 1.66 | 0.01 | 86 | 1017.6 |
| 20260904153009 | 87 | 204 | 1.7 | 6.1 | 0.00 | 1.66 | 0.01 | 83 | 1017.4 |
| 20260904152502 | 87 | 191 | 0.9 | 6.1 | 0.00 | 1.66 | 0.01 | 85 | 1017.5 |
| 20260904152004 | 87 | 191 | 1.7 | 7.0 | 0.00 | 1.66 | 0.01 | 85 | 1017.4 |
| 20260904151513 | 86 | 165 | 1.7 | 7.0 | 0.00 | 1.66 | 0.01 | 86 | 1017.4 |
| 20260904151004 | 86 | 190 | 0.0 | 3.5 | 0.00 | 1.66 | 0.01 | 87 | 1017.3 |
| 20260904150503 | 85 | 187 | 0.0 | 7.0 | 0.00 | 1.66 | 0.01 | 87 | 1017.4 |
| 20260904150018 | 85 | 189 | 0.0 | 7.0 | 0.00 | 1.66 | 0.01 | 87 | 1017.3 |
| 20260904145504 | 85 | 219 | 0.9 | 6.1 | 0.00 | 1.66 | 0.01 | 89 | 1017.3 |
| 20260904145004 | 85 | 218 | 0.0 | 3.5 | 0.00 | 1.66 | 0.01 | 89 | 1017.3 |
| 20260904144517 | 85 | 193 | 0.0 | 3.5 | 0.00 | 1.66 | 0.01 | 91 | 1017.1 |
| 20260904144010 | 84 | 188 | 0.0 | 0.9 | 0.00 | 1.66 | 0.01 | 90 | 1017.2 |
| 20260904143504 | 84 | 185 | 0.0 | 0.9 | 0.00 | 1.66 | 0.01 | 92 | 1017.1 |
| 20260904143008 | 83 | 187 | 0.0 | 2.6 | 0.00 | 1.66 | 0.01 | 93 | 1017.2 |
| 20260904142504 | 83 | 192 | 0.0 | 2.6 | 0.00 | 1.66 | 0.01 | 93 | 1017.2 |
| 20260904142005 | 82 | 223 | 0.0 | 5.2 | 0.00 | 1.66 | 0.01 | 93 | 1017.2 |
| 20260904141508 | 82 | 206 | 0.0 | 5.2 | 0.00 | 1.66 | 0.01 | 94 | 1016.9 |
| 20260904141003 | 82 | 221 | 0.0 | 0.9 | 0.00 | 1.66 | 0.01 | 96 | 1017.0 |
| 20260904140505 | 81 | 200 | 0.0 | 0.9 | 0.00 | 1.66 | 0.01 | 95 | 1016.9 |
| 20260904140009 | 81 | 171 | 0.0 | 0.9 | 0.00 | 1.66 | 0.01 | 96 | 1016.8 |
| 20260904135504 | 81 | 171 | 0.0 | 0.9 | 0.00 | 1.66 | 0.01 | 96 | 1016.7 |
| 20260904135011 | 81 | 171 | 0.0 | 0.9 | 0.00 | 1.66 | 0.01 | 96 | 1016.8 |
| 20260904134520 | 81 | 163 | 0.0 | 0.9 | 0.00 | 1.66 | 0.01 | 96 | 1016.8 |
| 20260904134005 | 80 | 163 | 0.0 | 0.9 | 0.00 | 1.66 | 0.01 | 96 | 1016.9 |
| 20260904133509 | 80 | 175 | 0.0 | 1.7 | 0.00 | 1.66 | 0.01 | 96 | 1016.8 |
| 20260904133028 | 80 | 191 | 0.0 | 1.7 | 0.00 | 1.66 | 0.01 | 96 | 1016.9 |
| 20260904132505 | 79 | 192 | 0.0 | 0.9 | 0.00 | 1.66 | 0.01 | 96 | 1016.8 |
| 20260904132003 | 79 | 165 | 0.0 | 0.9 | 0.00 | 1.66 | 0.01 | 96 | 1017.0 |
| 20260904131507 | 79 | 167 | 0.0 | 0.9 | 0.00 | 1.66 | 0.01 | 96 | 1016.7 |
| 20260904131003 | 79 | 200 | 0.0 | 0.9 | 0.00 | 1.66 | 0.01 | 97 | 1016.8 |
| 20260904130504 | 79 | 194 | 0.0 | 0.9 | 0.00 | 1.66 | 0.01 | 97 | 1016.9 |
| 20260904130016 | 78 | 193 | 0.0 | 0.9 | 0.00 | 1.66 | 0.01 | 97 | 1016.8 |
| 20260904125506 | 78 | 194 | 0.0 | 0.0 | 0.00 | 1.66 | 0.01 | 1016.7 | |
| 20260904125009 | 78 | 194 | 0.0 | 0.0 | 0.00 | 1.66 | 0.01 | 1016.5 | |
| 20260904124523 | 78 | 194 | 0.0 | 0.0 | 0.00 | 1.66 | 0.01 | 1016.5 | |
| 20260904124009 | 77 | 194 | 0.0 | 0.0 | 0.00 | 1.66 | 0.01 | 1016.5 | |
| 20260904123514 | 77 | 194 | 0.0 | 0.9 | 0.00 | 1.66 | 0.01 | 1016.5 | |
| 20260904123010 | 77 | 194 | 0.0 | 0.9 | 0.00 | 1.66 | 0.01 | 1016.5 | |
| 20260904122509 | 77 | 188 | 0.0 | 0.0 | 0.00 | 1.66 | 0.01 | 96 | 1016.4 |
| 20260904122012 | 76 | 171 | 0.0 | 0.0 | 0.00 | 1.66 | 0.01 | 96 | 1016.4 |
| 20260904121508 | 76 | 171 | 0.0 | 0.0 | 0.00 | 1.66 | 0.01 | 96 | 1016.4 |
| 20260904121010 | 76 | 184 | 0.0 | 0.0 | 0.00 | 1.66 | 0.01 | 96 | 1016.2 |
| 20260904120503 | 76 | 169 | 0.0 | 0.0 | 0.00 | 1.66 | 0.01 | 96 | 1016.2 |
| 20260904120012 | 76 | 169 | 0.0 | 0.0 | 0.00 | 1.66 | 0.01 | 96 | 1016.2 |
| 20260904115503 | 75 | 169 | 0.0 | 0.0 | 0.00 | 1.66 | 0.01 | 96 | 1016.2 |
| 20260904115007 | 75 | 169 | 0.0 | 0.0 | 0.00 | 1.66 | 0.01 | 96 | 1016.0 |
| 20260904114516 | 75 | 169 | 0.0 | 0.0 | 0.00 | 1.66 | 0.01 | 96 | 1016.1 |
| 20260904114008 | 74 | 169 | 0.0 | 0.0 | 0.00 | 1.66 | 0.01 | 96 | 1016.1 |
| 20260904113507 | 74 | 168 | 0.0 | 0.0 | 0.00 | 1.66 | 0.01 | 96 | 1016.0 |
| 20260904113030 | 74 | 168 | 0.0 | 0.0 | 0.00 | 1.66 | 0.01 | 96 | 1015.9 |
| 20260904112512 | 74 | 168 | 0.0 | 0.0 | 0.00 | 1.66 | 0.01 | 96 | 1015.8 |
| 20260904112003 | 74 | 168 | 0.0 | 0.0 | 0.00 | 1.66 | 0.01 | 96 | 1015.8 |
| 20260904111518 | 74 | 168 | 0.0 | 0.0 | 0.00 | 1.66 | 0.01 | 96 | 1015.8 |
| 20260904111011 | 74 | 169 | 0.0 | 0.0 | 0.00 | 1.66 | 0.01 | 95 | 1015.8 |
| 20260904110516 | 74 | 168 | 0.0 | 0.0 | 0.00 | 1.66 | 0.01 | 95 | 1015.8 |
| 20260904110019 | 74 | 168 | 0.0 | 0.0 | 0.00 | 1.66 | 0.01 | 95 | 1015.8 |
| 20260904105504 | 74 | 169 | 0.0 | 0.0 | 0.00 | 1.66 | 0.01 | 95 | 1015.6 |
| 20260904105004 | 74 | 169 | 0.0 | 0.0 | 0.00 | 1.66 | 0.01 | 95 | 1015.6 |
| 20260904104514 | 74 | 168 | 0.0 | 0.0 | 0.00 | 1.66 | 0.01 | 95 | 1015.6 |
| 20260904104009 | 74 | 168 | 0.0 | 0.0 | 0.00 | 1.66 | 0.01 | 95 | 1015.7 |
| 20260904103508 | 74 | 169 | 0.0 | 0.0 | 0.00 | 1.66 | 0.01 | 95 | 1015.7 |
| 20260904103026 | 74 | 168 | 0.0 | 0.0 | 0.00 | 1.66 | 0.01 | 95 | 1015.7 |
| 20260904102507 | 74 | 169 | 0.0 | 0.0 | 0.00 | 1.66 | 0.01 | 95 | 1015.5 |
| 20260904102010 | 74 | 168 | 0.0 | 0.0 | 0.00 | 1.66 | 0.01 | 95 | 1015.4 |
| 20260904101527 | 74 | 168 | 0.0 | 0.0 | 0.00 | 1.66 | 0.01 | 95 | 1015.3 |
| 20260904101004 | 74 | 168 | 0.0 | 0.0 | 0.00 | 1.66 | 0.01 | 95 | 1015.2 |
| 20260904100512 | 74 | 168 | 0.0 | 0.0 | 0.00 | 1.66 | 0.01 | 95 | 1015.2 |
| 20260904100030 | 74 | 168 | 0.0 | 0.0 | 0.00 | 1.66 | 0.01 | 95 | 1015.2 |
| 20260904095517 | 74 | 168 | 0.0 | 0.0 | 0.00 | 1.66 | 0.01 | 95 | 1015.1 |
| 20260904095007 | 74 | 168 | 0.0 | 0.0 | 0.00 | 1.66 | 0.01 | 95 | 1015.1 |
| 20260904094526 | 74 | 168 | 0.0 | 0.0 | 0.00 | 1.66 | 0.01 | 95 | 1015.0 |
| 20260904094003 | 74 | 168 | 0.0 | 0.0 | 0.00 | 1.66 | 0.01 | 95 | 1014.9 |
| 20260904093507 | 74 | 168 | 0.0 | 0.0 | 0.00 | 1.66 | 0.01 | 95 | 1014.9 |
| 20260904093048 | 74 | 169 | 0.0 | 0.0 | 0.00 | 1.66 | 0.01 | 95 | 1014.9 |
| 20260904092506 | 74 | 168 | 0.0 | 0.0 | 0.00 | 1.66 | 0.01 | 95 | 1015.0 |
| 20260904092011 | 74 | 169 | 0.0 | 0.0 | 0.00 | 1.66 | 0.01 | 95 | 1015.0 |
| 20260904091515 | 74 | 168 | 0.0 | 0.0 | 0.00 | 1.66 | 0.01 | 95 | 1015.0 |
| 20260904091012 | 74 | 168 | 0.0 | 0.0 | 0.00 | 1.66 | 0.01 | 95 | 1015.0 |
| 20260904090514 | 74 | 168 | 0.0 | 0.0 | 0.00 | 1.66 | 0.01 | 95 | 1015.0 |
| 20260904090029 | 75 | 168 | 0.0 | 0.0 | 0.00 | 1.66 | 0.01 | 95 | 1015.0 |
| 20260904085509 | 75 | 168 | 0.0 | 0.0 | 0.00 | 1.66 | 0.01 | 95 | 1015.0 |
| 20260904085014 | 75 | 168 | 0.0 | 0.0 | 0.00 | 1.66 | 0.01 | 95 | 1015.0 |
| 20260904084535 | 75 | 168 | 0.0 | 0.0 | 0.00 | 1.66 | 0.01 | 95 | 1015.0 |
| 20260904084007 | 75 | 169 | 0.0 | 0.0 | 0.00 | 1.66 | 0.01 | 95 | 1014.9 |
| 20260904083511 | 75 | 168 | 0.0 | 0.0 | 0.00 | 1.66 | 0.01 | 95 | 1014.8 |
| 20260904083012 | 75 | 169 | 0.0 | 0.0 | 0.00 | 1.66 | 0.01 | 95 | 1014.7 |
| 20260904082508 | 75 | 168 | 0.0 | 0.0 | 0.00 | 1.66 | 0.01 | 95 | 1014.9 |
| 20260904082008 | 75 | 168 | 0.0 | 0.0 | 0.00 | 1.66 | 0.01 | 95 | 1014.9 |
| 20260904081524 | 75 | 169 | 0.0 | 0.0 | 0.00 | 1.66 | 0.01 | 95 | 1014.9 |
| 20260904081012 | 75 | 168 | 0.0 | 0.0 | 0.00 | 1.66 | 0.01 | 95 | 1014.9 |
| 20260904080505 | 75 | 169 | 0.0 | 0.0 | 0.00 | 1.66 | 0.01 | 95 | 1014.9 |
| 20260904080027 | 75 | 168 | 0.0 | 0.0 | 0.00 | 1.66 | 0.01 | 95 | 1014.9 |
| 20260904075514 | 75 | 168 | 0.0 | 0.0 | 0.00 | 1.66 | 0.01 | 95 | 1015.0 |
| 20260904075015 | 75 | 168 | 0.0 | 0.0 | 0.00 | 1.66 | 0.01 | 95 | 1015.0 |
| 20260904074520 | 75 | 168 | 0.0 | 0.0 | 0.00 | 1.66 | 0.01 | 95 | 1015.0 |
| 20260904074011 | 75 | 169 | 0.0 | 0.0 | 0.00 | 1.66 | 0.01 | 95 | 1014.8 |
| 20260904073514 | 75 | 168 | 0.0 | 0.0 | 0.00 | 1.66 | 0.01 | 95 | 1014.7 |
| 20260904073049 | 75 | 168 | 0.0 | 0.0 | 0.00 | 1.66 | 0.01 | 95 | 1014.9 |
| 20260904072510 | 75 | 168 | 0.0 | 0.0 | 0.00 | 1.66 | 0.01 | 95 | 1014.9 |
| 20260904072014 | 75 | 169 | 0.0 | 0.0 | 0.00 | 1.66 | 0.01 | 95 | 1014.8 |
| 20260904071521 | 75 | 169 | 0.0 | 0.0 | 0.00 | 1.66 | 0.01 | 95 | 1014.8 |
| 20260904071008 | 75 | 168 | 0.0 | 0.0 | 0.00 | 1.66 | 0.01 | 95 | 1014.7 |
| 20260904070508 | 75 | 168 | 0.0 | 0.0 | 0.00 | 1.66 | 0.01 | 95 | 1014.7 |
| 20260904070028 | 75 | 168 | 0.0 | 0.0 | 0.00 | 1.66 | 0.01 | 95 | 1014.8 |
| 20260904065512 | 75 | 168 | 0.0 | 0.0 | 0.00 | 1.66 | 0.01 | 95 | 1014.9 |
| 20260904065009 | 75 | 169 | 0.0 | 0.0 | 0.00 | 1.66 | 0.01 | 95 | 1014.8 |
| 20260904064529 | 75 | 169 | 0.0 | 0.0 | 0.00 | 1.66 | 0.01 | 95 | 1014.8 |
| 20260904064015 | 75 | 169 | 0.0 | 0.0 | 0.00 | 1.66 | 0.01 | 95 | 1014.8 |
| 20260904063506 | 75 | 169 | 0.0 | 0.0 | 0.00 | 1.66 | 0.01 | 95 | 1014.9 |
| 20260904063030 | 75 | 168 | 0.0 | 0.0 | 0.00 | 1.66 | 0.01 | 95 | 1014.9 |
| 20260904062504 | 75 | 169 | 0.0 | 0.0 | 0.00 | 1.66 | 0.01 | 95 | 1015.0 |
| 20260904062007 | 75 | 168 | 0.0 | 0.0 | 0.00 | 1.66 | 0.01 | 95 | 1015.0 |
| 20260904061515 | 75 | 168 | 0.0 | 0.0 | 0.00 | 1.66 | 0.01 | 95 | 1015.0 |
| 20260904061004 | 75 | 169 | 0.0 | 0.0 | 0.00 | 1.66 | 0.01 | 95 | 1015.1 |
| 20260904060504 | 75 | 168 | 0.0 | 0.0 | 0.01 | 1.66 | 0.01 | 95 | 1015.1 |
| 20260904060013 | 75 | 168 | 0.0 | 0.0 | 0.01 | 1.66 | 0.01 | 95 | 1015.2 |
| 20260904055506 | 75 | 169 | 0.0 | 0.0 | 0.01 | 1.66 | 0.01 | 95 | 1015.2 |
| 20260904055004 | 75 | 168 | 0.0 | 0.0 | 0.01 | 1.66 | 0.01 | 94 | 1015.2 |
| 20260904054508 | 75 | 168 | 0.0 | 0.0 | 0.01 | 1.66 | 0.01 | 94 | 1015.4 |
| 20260904054003 | 75 | 169 | 0.0 | 0.0 | 0.01 | 1.66 | 0.01 | 94 | 1015.5 |
| 20260904053503 | 75 | 168 | 0.0 | 0.0 | 0.01 | 1.66 | 0.01 | 94 | 1015.4 |
| 20260904053009 | 75 | 168 | 0.0 | 0.0 | 0.01 | 1.66 | 0.01 | 94 | 1015.5 |
| 20260904052504 | 75 | 168 | 0.0 | 0.0 | 0.01 | 1.66 | 0.01 | 94 | 1015.6 |
| 20260904052002 | 75 | 168 | 0.0 | 0.0 | 0.01 | 1.66 | 0.01 | 94 | 1015.6 |
| 20260904051510 | 75 | 168 | 0.0 | 0.0 | 0.01 | 1.66 | 0.01 | 94 | 1015.7 |
| 20260904051005 | 75 | 168 | 0.0 | 0.0 | 0.01 | 1.66 | 0.01 | 94 | 1015.7 |
| 20260904050507 | 75 | 169 | 0.0 | 0.0 | 0.00 | 1.65 | 0.00 | 94 | 1015.7 |
| 20260904050008 | 75 | 169 | 0.0 | 0.0 | 0.00 | 1.65 | 0.00 | 94 | 1015.8 |
| 20260904045506 | 75 | 168 | 0.0 | 0.0 | 0.00 | 1.65 | 0.00 | 94 | 1015.7 |
| 20260904045005 | 75 | 168 | 0.0 | 0.0 | 0.00 | 1.65 | 0.00 | 94 | 1015.7 |
| 20260904044507 | 75 | 168 | 0.0 | 0.0 | 0.00 | 1.65 | 0.00 | 94 | 1015.7 |
| 20260904044005 | 75 | 168 | 0.0 | 0.0 | 0.00 | 1.65 | 0.00 | 94 | 1015.8 |
| 20260904043503 | 75 | 168 | 0.0 | 0.0 | 0.00 | 1.65 | 0.00 | 94 | 1015.9 |
| 20260904043006 | 75 | 168 | 0.0 | 0.0 | 0.00 | 1.65 | 0.00 | 94 | 1015.8 |
| 20260904042503 | 75 | 168 | 0.0 | 0.0 | 0.00 | 1.65 | 0.00 | 94 | 1015.9 |
| 20260904042004 | 75 | 168 | 0.0 | 0.0 | 0.00 | 1.65 | 0.00 | 94 | 1015.9 |
| 20260904041509 | 75 | 168 | 0.0 | 0.0 | 0.00 | 1.65 | 0.00 | 94 | 1015.9 |
| 20260904041003 | 75 | 168 | 0.0 | 0.0 | 0.00 | 1.65 | 0.00 | 94 | 1015.8 |
| 20260904040502 | 75 | 168 | 0.0 | 0.0 | 0.00 | 1.65 | 0.00 | 94 | 1015.8 |
| 20260904040018 | 75 | 168 | 0.0 | 0.0 | 0.00 | 1.65 | 0.00 | 94 | 1015.8 |
| 20260904035506 | 75 | 169 | 0.0 | 0.0 | 0.00 | 1.65 | 1.65 | 94 | 1015.8 |
| 20260904035004 | 75 | 168 | 0.0 | 0.0 | 0.00 | 1.65 | 1.65 | 94 | 1015.8 |
| 20260904034516 | 75 | 168 | 0.0 | 0.0 | 0.00 | 1.65 | 1.65 | 94 | 1015.8 |
| 20260904034007 | 75 | 168 | 0.0 | 0.0 | 0.00 | 1.65 | 1.65 | 94 | 1016.0 |
| 20260904033507 | 75 | 168 | 0.0 | 0.0 | 0.00 | 1.65 | 1.65 | 94 | 1016.0 |
| 20260904033015 | 75 | 169 | 0.0 | 0.0 | 0.00 | 1.65 | 1.65 | 94 | 1015.9 |
| 20260904032508 | 75 | 169 | 0.0 | 0.0 | 0.00 | 1.65 | 1.65 | 94 | 1015.8 |
| 20260904032002 | 75 | 168 | 0.0 | 0.0 | 0.00 | 1.65 | 1.65 | 94 | 1015.8 |
| 20260904031507 | 75 | 168 | 0.0 | 0.0 | 0.00 | 1.65 | 1.65 | 94 | 1015.8 |
| 20260904031003 | 75 | 168 | 0.0 | 0.0 | 0.00 | 1.65 | 1.65 | 94 | 1015.7 |
| 20260904030504 | 75 | 169 | 0.0 | 0.0 | 0.00 | 1.65 | 1.65 | 94 | 1015.8 |
| 20260904030016 | 75 | 169 | 0.0 | 0.0 | 0.00 | 1.65 | 1.65 | 94 | 1015.8 |
| 20260904025504 | 75 | 168 | 0.0 | 0.0 | 0.00 | 1.65 | 1.65 | 94 | 1015.8 |
| 20260904025007 | 75 | 169 | 0.0 | 0.0 | 0.00 | 1.65 | 1.65 | 94 | 1015.8 |
| 20260904024520 | 75 | 135 | 0.0 | 0.0 | 0.00 | 1.65 | 1.65 | 94 | 1015.8 |
| 20260904024004 | 76 | 135 | 0.0 | 0.0 | 0.00 | 1.65 | 1.65 | 94 | 1015.7 |
| 20260904023504 | 75 | 135 | 0.0 | 0.0 | 0.00 | 1.65 | 1.65 | 94 | 1015.6 |
| 20260904023021 | 76 | 135 | 0.0 | 0.0 | 0.00 | 1.65 | 1.65 | 94 | 1015.6 |
| 20260904022510 | 76 | 152 | 0.0 | 0.0 | 0.00 | 1.65 | 1.65 | 94 | 1015.6 |
| 20260904022007 | 76 | 153 | 0.0 | 0.0 | 0.00 | 1.65 | 1.65 | 93 | 1015.6 |
| 20260904021518 | 76 | 152 | 0.0 | 0.0 | 0.00 | 1.65 | 1.65 | 93 | 1015.5 |
| 20260904021003 | 76 | 153 | 0.0 | 0.0 | 0.00 | 1.65 | 1.65 | 93 | 1015.4 |
| 20260904020504 | 76 | 131 | 0.0 | 0.0 | 0.00 | 1.65 | 1.65 | 93 | 1015.3 |
| 20260904020013 | 76 | 124 | 0.0 | 0.0 | 0.00 | 1.65 | 1.65 | 93 | 1015.5 |
| 20260904015503 | 76 | 124 | 0.0 | 0.0 | 0.00 | 1.65 | 1.65 | 93 | 1015.4 |
| 20260904015006 | 76 | 133 | 0.0 | 0.0 | 0.00 | 1.65 | 1.65 | 93 | 1015.5 |
| 20260904014512 | 76 | 109 | 0.0 | 0.0 | 0.00 | 1.65 | 1.65 | 93 | 1015.5 |
| 20260904014006 | 76 | 110 | 0.0 | 0.0 | 0.00 | 1.65 | 1.65 | 93 | 1015.5 |
| 20260904013509 | 76 | 102 | 0.0 | 0.0 | 0.00 | 1.65 | 1.65 | 93 | 1015.5 |
| 20260904013032 | 76 | 100 | 0.0 | 0.0 | 0.00 | 1.65 | 1.65 | 93 | 1015.5 |
| 20260904012507 | 76 | 138 | 0.0 | 0.0 | 0.00 | 1.65 | 1.65 | 93 | 1015.6 |
| 20260904012010 | 76 | 138 | 0.0 | 0.0 | 0.00 | 1.65 | 1.65 | 93 | 1015.6 |
| 20260904011527 | 76 | 138 | 0.0 | 0.0 | 0.00 | 1.65 | 1.65 | 93 | 1015.6 |
| 20260904011008 | 76 | 138 | 0.0 | 0.9 | 0.00 | 1.65 | 1.65 | 93 | 1015.6 |
| 20260904010506 | 77 | 113 | 0.0 | 0.9 | 0.00 | 1.65 | 1.65 | 93 | 1015.6 |
| 20260904010029 | 77 | 124 | 0.0 | 0.9 | 0.00 | 1.65 | 1.65 | 93 | 1015.6 |
| 20260904005506 | 77 | 108 | 0.0 | 0.9 | 0.00 | 1.65 | 1.65 | 93 | 1015.5 |
| 20260904005005 | 77 | 76 | 0.0 | 0.0 | 0.00 | 1.65 | 1.65 | 93 | 1015.4 |
| 20260904004516 | 77 | 138 | 0.0 | 0.0 | 0.00 | 1.65 | 1.65 | 93 | 1015.3 |
| 20260904004006 | 77 | 68 | 0.0 | 0.0 | 0.00 | 1.65 | 1.65 | 93 | 1015.2 |
| 20260904003506 | 77 | 68 | 0.0 | 0.0 | 0.00 | 1.65 | 1.65 | 93 | 1015.0 |
| 20260904003019 | 77 | 66 | 0.0 | 0.0 | 0.00 | 1.65 | 1.65 | 93 | 1014.8 |
| 20260904002508 | 77 | 72 | 0.0 | 0.0 | 0.01 | 1.65 | 1.65 | 93 | 1015.0 |
| 20260904002010 | 77 | 72 | 0.0 | 0.0 | 0.01 | 1.65 | 1.65 | 93 | 1015.0 |
| 20260904001517 | 77 | 125 | 0.0 | 0.0 | 0.01 | 1.65 | 1.65 | 93 | 1015.1 |
| 20260904001008 | 77 | 159 | 0.0 | 0.0 | 0.01 | 1.65 | 1.65 | 93 | 1015.1 |
| 20260904000513 | 77 | 159 | 0.0 | 0.0 | 0.01 | 1.65 | 1.65 | 93 | 1015.3 |
| 20260904000029 | 77 | 159 | 0.0 | 0.0 | 0.01 | 1.65 | 1.65 | 93 | 1015.1 |
| 20260903235504 | 77 | 159 | 0.0 | 0.0 | 0.01 | 1.65 | 1.65 | 92 | 1015.0 |
| 20260903235012 | 77 | 131 | 0.0 | 0.0 | 0.02 | 1.65 | 1.65 | 92 | 1015.0 |
| 20260903234529 | 77 | 131 | 0.0 | 0.9 | 0.02 | 1.65 | 1.65 | 92 | 1015.0 |
| 20260903234004 | 77 | 98 | 0.0 | 2.6 | 0.03 | 1.65 | 1.65 | 93 | 1015.0 |
| 20260903233509 | 77 | 106 | 0.0 | 2.6 | 0.03 | 1.65 | 1.65 | 92 | 1015.0 |
| 20260903233020 | 77 | 94 | 0.0 | 1.7 | 0.03 | 1.65 | 1.65 | 92 | 1015.0 |
| 20260903232509 | 77 | 93 | 0.0 | 0.9 | 0.02 | 1.64 | 1.64 | 1015.1 | |
| 20260903232006 | 77 | 33 | 0.0 | 0.0 | 0.02 | 1.65 | 1.64 | 1014.9 | |
| 20260903231528 | 77 | 67 | 0.0 | 0.0 | 0.02 | 1.65 | 1.64 | 1015.0 | |
| 20260903231016 | 77 | 45 | 0.0 | 0.0 | 0.02 | 1.65 | 1.64 | 1014.9 | |
| 20260903230506 | 77 | 44 | 0.0 | 0.0 | 0.02 | 1.65 | 1.64 | 1014.9 | |
| 20260903230045 | 77 | 44 | 0.0 | 0.0 | 0.02 | 1.65 | 1.64 | 1015.1 | |
| 20260903225515 | 77 | 44 | 0.0 | 0.0 | 0.10 | 1.65 | 1.64 | 1015.0 | |
| 20260903225014 | 77 | 45 | 0.0 | 0.0 | 0.31 | 1.64 | 1.63 | 1015.0 | |
| 20260903224514 | 77 | 45 | 0.0 | 0.0 | 0.41 | 1.64 | 1.63 | 1015.0 | |
| 20260903224013 | 76 | 45 | 0.0 | 0.0 | 0.56 | 1.63 | 1.62 | 1014.9 | |
| 20260903223514 | 76 | 45 | 0.0 | 0.0 | 0.69 | 1.64 | 1.62 | 1014.8 | |
| 20260903223014 | 76 | 45 | 0.0 | 0.0 | 0.87 | 1.65 | 1.62 | 1014.8 | |
| 20260903222505 | 76 | 45 | 0.0 | 0.0 | 1.10 | 1.65 | 1.62 | 1014.8 | |
| 20260903222007 | 76 | 45 | 0.0 | 0.0 | 1.40 | 1.65 | 1.62 | 90 | 1014.8 |
| 20260903221519 | 76 | 45 | 0.0 | 0.0 | 1.61 | 1.66 | 1.62 | 90 | 1014.9 |
| 20260903221012 | 76 | 45 | 0.0 | 0.0 | 1.62 | 1.67 | 1.62 | 90 | 1014.7 |
| 20260903220512 | 76 | 45 | 0.0 | 0.9 | 1.62 | 1.68 | 1.62 | 90 | 1014.8 |
| 20260903220007 | 76 | 45 | 0.0 | 0.9 | 1.62 | 1.69 | 1.62 | 90 | 1014.7 |
| 20260903215504 | 76 | 39 | 0.0 | 0.9 | 1.54 | 1.62 | 1.54 | 90 | 1014.4 |
| 20260903215010 | 75 | 338 | 0.0 | 0.9 | 1.32 | 1.41 | 1.32 | 88 | 1014.5 |
| 20260903214516 | 76 | 75 | 0.0 | 1.7 | 1.22 | 1.31 | 1.22 | 88 | 1014.9 |
| 20260903214005 | 76 | 66 | 0.0 | 3.5 | 1.05 | 1.15 | 1.05 | 87 | 1014.8 |
| 20260903213505 | 76 | 248 | 0.0 | 10.4 | 0.93 | 1.03 | 0.93 | 86 | 1014.6 |
| 20260903213008 | 77 | 219 | 3.5 | 13.9 | 0.75 | 0.85 | 0.75 | 85 | 1014.3 |
| 20260903212505 | 78 | 205 | 8.7 | 13.9 | 0.52 | 0.62 | 0.52 | 81 | 1014.4 |
| 20260903212005 | 80 | 198 | 5.2 | 19.1 | 0.22 | 0.34 | 0.22 | 79 | 1014.5 |
| 20260903211518 | 83 | 194 | 8.7 | 21.7 | 0.01 | 0.19 | 0.01 | 74 | 1014.3 |
| 20260903211008 | 88 | 167 | 8.7 | 21.7 | 0.00 | 0.31 | 0.00 | 70 | 1013.7 |
| 20260903210505 | 90 | 150 | 4.3 | 10.4 | 0.00 | 0.55 | 0.00 | 72 | 1013.7 |
| 20260903210016 | 90 | 76 | 2.6 | 10.4 | 0.00 | 0.89 | 0.00 | 71 | 1013.5 |
| 20260903205512 | 91 | 75 | 3.5 | 7.8 | 0.00 | 1.13 | 0.00 | 70 | 1012.9 |
| 20260903205004 | 92 | 97 | 0.9 | 5.2 | 0.00 | 1.13 | 0.00 | 70 | 1012.6 |
| 20260903204512 | 92 | 54 | 0.9 | 7.8 | 0.00 | 1.13 | 0.00 | 69 | 1012.7 |
| 20260903204007 | 93 | 53 | 1.7 | 9.6 | 0.00 | 1.13 | 0.00 | 68 | 1012.9 |
| 20260903203503 | 94 | 52 | 3.5 | 9.6 | 0.00 | 1.13 | 0.00 | 68 | 1013.2 |
| 20260903203007 | 94 | 60 | 4.3 | 9.6 | 0.00 | 1.13 | 0.00 | 68 | 1013.4 |
| 20260903202503 | 93 | 30 | 3.5 | 12.2 | 0.00 | 1.13 | 0.00 | 67 | 1013.4 |
| 20260903202004 | 94 | 90 | 4.3 | 12.2 | 0.00 | 1.13 | 0.00 | 67 | 1013.4 |
| 20260903201512 | 93 | 24 | 2.6 | 8.7 | 0.00 | 1.13 | 0.00 | 68 | 1013.4 |
| 20260903201004 | 93 | 24 | 3.5 | 9.6 | 0.00 | 1.13 | 0.00 | 68 | 1013.3 |
| 20260903200506 | 94 | 45 | 3.5 | 9.6 | 0.00 | 1.13 | 0.00 | 67 | 1013.4 |
| 20260903200021 | 94 | 55 | 2.6 | 8.7 | 0.00 | 1.13 | 0.00 | 68 | 1013.4 |
| 20260903195504 | 94 | 49 | 2.6 | 8.7 | 0.00 | 1.13 | 0.00 | 67 | 1013.7 |
| 20260903195006 | 95 | 30 | 1.7 | 7.0 | 0.00 | 1.13 | 0.00 | 65 | 1013.8 |
| 20260903194527 | 95 | 26 | 0.9 | 10.4 | 0.00 | 1.13 | 0.00 | 65 | 1013.7 |
| 20260903194014 | 96 | 71 | 4.3 | 10.4 | 0.00 | 1.13 | 0.00 | 63 | 1013.7 |
| 20260903193504 | 97 | 64 | 3.5 | 8.7 | 0.00 | 1.13 | 0.00 | 61 | 1013.9 |
| 20260903193025 | 98 | 47 | 0.0 | 2.6 | 0.00 | 1.13 | 0.00 | 60 | 1014.1 |
| 20260903192516 | 97 | 181 | 0.0 | 0.9 | 0.00 | 1.13 | 0.00 | 64 | 1014.1 |
| 20260903192003 | 96 | 165 | 0.0 | 0.9 | 0.00 | 1.13 | 0.00 | 61 | 1014.2 |
| 20260903191511 | 96 | 205 | 0.0 | 1.7 | 0.00 | 1.13 | 0.00 | 60 | 1014.3 |
| 20260903191005 | 95 | 207 | 0.0 | 3.5 | 0.00 | 1.13 | 0.00 | 59 | 1014.3 |
| 20260903190506 | 96 | 195 | 0.0 | 5.2 | 0.00 | 1.13 | 0.00 | 64 | 1014.4 |
| 20260903190015 | 95 | 201 | 0.0 | 5.2 | 0.00 | 1.13 | 0.00 | 64 | 1014.4 |
| 20260903185507 | 95 | 163 | 0.0 | 5.2 | 0.00 | 1.13 | 0.00 | 65 | 1014.4 |
| 20260903185010 | 95 | 223 | 1.7 | 5.2 | 0.00 | 1.13 | 0.00 | 63 | 1014.4 |
| 20260903184509 | 95 | 155 | 0.0 | 4.3 | 0.00 | 1.13 | 0.00 | 65 | 1014.4 |
| 20260903184007 | 95 | 186 | 0.9 | 4.3 | 0.00 | 1.13 | 0.00 | 65 | 1014.2 |
| 20260903183514 | 95 | 213 | 0.0 | 2.6 | 0.00 | 1.13 | 0.00 | 66 | 1014.3 |
| 20260903183030 | 95 | 149 | 0.0 | 5.2 | 0.00 | 1.13 | 0.00 | 64 | 1014.4 |
| 20260903182507 | 95 | 142 | 0.9 | 5.2 | 0.00 | 1.13 | 0.00 | 66 | 1014.4 |
| 20260903182007 | 94 | 194 | 0.0 | 4.3 | 0.00 | 1.13 | 0.00 | 69 | 1014.4 |
| 20260903181527 | 94 | 183 | 0.9 | 3.5 | 0.00 | 1.13 | 0.00 | 70 | 1014.5 |
| 20260903181016 | 94 | 213 | 0.0 | 6.1 | 0.00 | 1.13 | 0.00 | 70 | 1014.5 |
| 20260903180504 | 93 | 188 | 0.9 | 6.1 | 0.00 | 1.13 | 0.00 | 69 | 1014.6 |
| 20260903180035 | 93 | 79 | 0.0 | 6.1 | 0.00 | 1.13 | 0.00 | 67 | 1014.9 |